Weather in Alkino

Russia / Samara Oblast     53°43′46″N   52°14′41″E
temp.,
°C
wind,
m/s
gust,
m/s
humid.,
%
clouds,
%
prec.,
mm/h
press.,
hPa
HPBL,
m
3 march, wed
wed301:00−2wsw4897100 0.4 1001281
04:00−4wsw339791 0.5 100266
07:00−8w129731 0.0 100121
10:00−5w249654 0.0 1002199
13:00−3w459596 0.1 1002427
16:00−3w578998 0.2 1003686
19:00−6w4994100 0.2 1004237
22:00−7wnw5129393 0.3 1006433
4 march, thu
thu401:00−11w459679 0.0 100685
04:00−12w469682 0.1 1007101
07:00−14sw499882 0.0 1006147
10:00−9sw7119492 0.3 1005375
13:00−5sw81293100 0.2 1004599
16:00−4sw91594100 0.6 1002884
19:00−1sw91695100 1.4 1000890
22:000wsw91497100 2.4 1001864
5 march, fri
fri501:000wsw81397100 1.4 1001757
04:00−1sw71396100 2.5 1001679
07:00−2sw71397100 1.5 1001584
10:00−1sw71197100 3.4 1001670
13:000ssw612100100 1.6 1000696
16:00+1wsw91699100 3.8 1000803
19:00−4nw7139099 0.3 1003479
22:00−9nw479471 0.3 1008138
6 march, sat
sat601:00−14nw239117 0.0 101122
04:00−16nnw229257 0.0 101320
07:00−15ne129298 0.0 101320
10:00−12ne238899 0.0 1012231
13:00−9ne3487100 0.0 1011363
16:00−9nne3488100 0.0 1011392
19:00−13n3391100 0.0 101124
22:00−16nnw229267 0.0 101220
7 march, sun
sun701:00−18wnw11930 0.0 101220
04:00−18wsw119316 0.0 101320
07:00−16wsw229788 0.1 101323
10:00−13wsw239491 0.1 1015227
13:00−10w3485100 0.0 1015516
16:00−11sw458970 0.0 1015349
19:00−14s4109267 0.0 1013216
22:00−13s6138483 0.0 1011416